Location: *
(18.5200°S, 46.4500°E)
Time: 07:18:59
(UTC+00:00)

ARIANE DEB (SYLDA) - Pass Details

Date: 19 July 2019
Orbit: 618 x 35669 km, 7.2° (Epoch: 21 August)

Event Time Altitude Azimuth Distance (km) Brightness Sun altitude
Rises 16:34:14 0° 300° (WNW) 3,048 6.8 -27.7°
Reaches altitude 10° 16:36:51 10° 322° (NW) 1,962 5.2 -28.3°
Enters shadow 16:38:57 19° 359° (N) 1,556 4.2 -28.8°
